Newark Heath, OH

5:13 AM EDT on September 23, 2017 (GMT -0400)
Newark Heath

Weather History for KVTA - April, 2013

Change the Weather History Date:

Thursday, April 18, 2013

  Actual Average Record
Temperature  
Mean Temperature 70 °F -  
Max Temperature 84 °F 64 °F 87 °F (1976)
Min Temperature 55 °F 40 °F 23 °F (1951)
Cooling Degree Days 4    
Growing Degree Days 20 (Base 50)    
Moisture  
Dew Point 56 °F    
Average Humidity 64    
Maximum Humidity 94    
Minimum Humidity 37    
Precipitation  
Precipitation 0.00 in - - ()
Sea Level Pressure  
Sea Level Pressure 29.84 in    
Wind  
Wind Speed 9 mph (South)    
Max Wind Speed 22 mph    
Max Gust Speed 32 mph    
Visibility 9 miles    
Events      
Averages and records for this station are not official NWS values.
T = Trace of Precipitation, MM = Missing Value Source: NWS Daily Summary

Daily Weather History Graph

Daily Weather History Graph

Search for Another Location

Airport or City:

Trip Planner

Search our weather history database for the weather conditions in past years. The results will help you decide how hot, cold, wet, or windy it might be!

Date:

Astronomy

Apr. 18, 2013 Rise Set
Actual Time 6:47 AM EDT 8:11 PM EDT
Civil Twilight 6:18 AM EDT 8:40 PM EDT
Nautical Twilight 5:45 AM EDT 9:14 PM EDT
Astronomical Twilight 5:09 AM EDT 9:50 PM EDT
Moon 12:57 PM EDT (4/18) 2:25 AM EDT (4/18)
Length of Visible Light 14h 21m
Length of Day
13h 24m
First Quarter, 51% of the Moon is Illuminated
Apr 18
First Quarter
Apr 25
Full
May 2
Last Quarter
May 9
New
May 18
First Quarter

Hourly Weather History & Observations

Time (EDT) Temp. Heat Index Dew Point Humidity Pressure Visibility Wind Dir Wind Speed Gust Speed Precip Events Conditions
12:54 AM 57.9 °F - 55.0 °F 90% 30.03 in 7.0 mi East 4.6 mph - N/A   Clear
1:54 AM 59.0 °F - 55.0 °F 87% 29.99 in 8.0 mi ESE 3.5 mph - N/A   Clear
2:54 AM 61.0 °F - 57.0 °F 87% 29.96 in 10.0 mi South 6.9 mph - N/A   Clear
3:54 AM 59.0 °F - 55.9 °F 90% 29.94 in 9.0 mi SE 3.5 mph - N/A   Clear
4:54 AM 55.0 °F - 53.1 °F 93% 29.93 in 2.0 mi Calm Calm - N/A   Clear
5:07 AM 55.4 °F - 53.6 °F 94% 29.93 in 9.0 mi South 3.5 mph - N/A   Clear
5:54 AM 60.1 °F - 55.9 °F 86% 29.93 in 10.0 mi South 5.8 mph - N/A   Clear
6:54 AM 60.1 °F - 55.9 °F 86% 29.94 in 10.0 mi South 4.6 mph - N/A   Scattered Clouds
7:54 AM 63.0 °F - 55.9 °F 78% 29.93 in 10.0 mi South 6.9 mph - N/A   Mostly Cloudy
8:54 AM 64.9 °F - 57.0 °F 75% 29.94 in 10.0 mi SSE 9.2 mph - N/A   Mostly Cloudy
9:54 AM 68.0 °F - 57.9 °F 70% 29.92 in 10.0 mi SSW 10.4 mph 18.4 mph N/A   Mostly Cloudy
10:54 AM 73.0 °F - 60.1 °F 64% 29.90 in 10.0 mi SSW 17.3 mph 23.0 mph N/A   Partly Cloudy
11:54 AM 75.9 °F - 62.1 °F 62% 29.88 in 10.0 mi SSW 19.6 mph 25.3 mph N/A   Clear
12:54 PM 78.1 °F - 61.0 °F 56% 29.85 in 10.0 mi SSW 15.0 mph 25.3 mph N/A   Mostly Cloudy
1:54 PM 81.0 °F 81.6 °F 60.1 °F 49% 29.81 in 10.0 mi SSW 18.4 mph 26.5 mph N/A   Mostly Cloudy
2:54 PM 82.9 °F 82.4 °F 57.0 °F 41% 29.79 in 10.0 mi SSW 20.7 mph 26.5 mph N/A   Clear
3:54 PM 84.0 °F 82.9 °F 55.0 °F 37% 29.76 in 10.0 mi SSW 18.4 mph 25.3 mph N/A   Clear
4:54 PM 84.0 °F 82.9 °F 55.0 °F 37% 29.74 in 10.0 mi South 21.9 mph 32.2 mph N/A   Scattered Clouds
5:54 PM 82.9 °F 82.4 °F 57.0 °F 41% 29.73 in 10.0 mi SSW 15.0 mph 23.0 mph N/A   Clear
6:54 PM 82.0 °F 81.6 °F 55.9 °F 41% 29.72 in 10.0 mi South 13.8 mph 21.9 mph N/A   Mostly Cloudy
7:54 PM 79.0 °F - 55.0 °F 44% 29.71 in 10.0 mi South 10.4 mph - N/A   Clear
8:54 PM 78.1 °F - 54.0 °F 43% 29.70 in 10.0 mi South 10.4 mph - N/A   Clear
9:54 PM 75.9 °F - 55.0 °F 48% 29.70 in 10.0 mi South 8.1 mph - N/A   Clear
10:54 PM 75.0 °F - 55.0 °F 50% 29.68 in 10.0 mi South 10.4 mph - N/A   Clear
11:54 PM 75.0 °F - 54.0 °F 48% 29.65 in 10.0 mi South 15.0 mph 21.9 mph N/A   Clear